Hourly Data Report for June 06, 2001

SHERBROOKE A
QUEBEC

45°26'00.000" N
71°41'00.000" W
241.40 m
7028124
71610
YSC

Download Data

Hourly Data (June 2001)
Hourly Data Report for June 6, 2001
TIME
LST
Temp Definition
°C
Dew Point Definition
°C
Rel Hum Definition
%
Precip. Amount Definition
mm

Wind Dir Definition
10's deg

Wind Spd Definition
km/h
Visibility Definition
km
Stn Press Definition
kPa
Hmdx Definition


Wind Chill Definition


Weather Definition


00:00 13.1 11.1 88   25 13 15.0 98.27      
01:00 12.5 10.9 90   26 13 15.0 98.29      
02:00 12.1 10.4 89   26 7 15.0 98.29      
03:00 11.4 10.6 95   27 11 15.0 98.30      
04:00 11.0 10.7 98   26 9 8.0 98.32     Drizzle
05:00 10.9 10.8 99   26 13 3.9 98.37      
06:00 11.1 11.0 99   27 7 15.0 98.39      
07:00 12.0 11.2 95   26 11 16.1 98.40     Mostly Cloudy
08:00 12.5 11.1 91   29 11 19.3 98.43     Cloudy
09:00 13.7 11.0 84   26 13 19.3 98.43     Mostly Cloudy
10:00 16.1 11.3 73   27 9 19.3 98.39     Mostly Cloudy
11:00 15.6 9.9 69   30 15 15.0 98.37      
12:00 16.3 10.8 70   29 15 15.0 98.37      
13:00 17.1 10.5 65   30 17 19.3 98.38     Mostly Cloudy
14:00 15.5 10.7 73   28 13 19.3 98.43     Cloudy
15:00 16.7 10.5 67   30 15 19.3 98.44     Cloudy
16:00 16.3 10.9 70   29 7 19.3 98.43     Mostly Cloudy
17:00 16.7 11.5 71   29 11 15.0 98.40      
18:00 16.1 10.2 68   29 13 15.0 98.40      
19:00 15.0 11.3 79   28 7 15.0 98.42      
20:00 14.4 10.5 77   25 7 15.0 98.44      
21:00 12.5 10.0 85   26 6 15.0 98.46      
22:00 9.4 8.0 91   25 4 15.0 98.43      
23:00 8.2 7.9 98     0 15.0 98.45      

Notes on Data Quality.

Legend

  • E = Estimated
  • M = Missing
  • NA = Not Available*
  • [empty] = Indicates an unobserved value
Date modified: